Location: C�mpuri de-Sus
(45.9500°N, 22.5500°E)
Time: 04:38:06
(UTC+00:00)

ATLAS 3B R/B - Pass Details

Date: 24 October 2021
Orbit: 989 x 1206 km, 63.8° (Epoch: 25 November)

Event Time Altitude Azimuth Distance (km) Brightness Sun altitude
Rises 15:51:14 0° 244° (WSW) 3,720 7.6 -4.7°
Reaches altitude 10° 15:53:58 10° 252° (WSW) 2,792 6.8 -5.2°
Maximum altitude 16:00:07 41° 322° (NW) 1,478 3.8 -6.2°
Drops below altitude 10° 16:06:35 10° 31° (NNE) 2,932 4.6 -7.3°
Sets 16:09:31 0° 39° (NE) 3,926 5.2 -7.8°
